GW1031 Weather Reports


Display with metric or nautical units.
time (UTC)temp
F
wind
direction
speed
MPH
gust
MPH
rain 1hr
in
rain 24hr
in
rain mn
in
humidity
%
barometer
mb
20260506013658 54 258 2.0 3.0 0.00 0.00 0.00 48 1009.2
20260506013155 54 263 1.0 2.0 0.00 0.00 0.00 49 1009.1
20260506012651 55 220 3.0 3.0 0.00 0.00 0.00 46 1009.0
20260506012148 55 288 1.0 1.0 0.00 0.00 0.00 45 1008.7
20260506011645 56 240 4.0 5.0 0.00 0.00 0.00 42 1008.6
20260506011141 57 265 3.0 3.0 0.00 0.00 0.00 39 1008.0
20260506010640 58 212 1.0 1.0 0.00 0.00 0.00 37 1008.0
20260506010137 59 239 0.0 1.0 0.00 0.00 0.00 33 1007.7
20260506005634 59 258 4.0 5.0 0.00 0.00 0.00 31 1007.7
20260506005130 59 218 1.0 1.0 0.00 0.00 0.00 30 1007.7
20260506004626 59 169 0.0 0.0 0.00 0.00 0.00 31 1007.6
20260506004124 59 159 0.0 1.0 0.00 0.00 0.00 29 1007.7
20260506003620 59 177 0.0 0.0 0.00 0.00 0.00 28 1007.4
20260506003116 59 67 1.0 2.0 0.00 0.00 0.00 29 1007.4
20260506002612 60 197 3.0 3.0 0.00 0.00 0.00 28 1007.4
20260506002109 60 226 0.0 1.0 0.00 0.00 0.00 27 1007.5
20260506001605 61 164 1.0 1.0 0.00 0.00 0.00 29 1007.1
20260506001102 62 233 1.0 2.0 0.00 0.00 0.00 28 1007.0
20260506000600 62 279 3.0 3.0 0.00 0.00 0.00 27 1006.9
20260506000057 63 193 1.0 1.0 0.00 0.00 0.00 24 1006.8
20260505235555 62 157 2.0 3.0 0.00 0.00 0.00 24 1006.7
20260505235052 62 183 3.0 6.0 0.00 0.00 0.00 23 1006.8
20260505234548 63 270 3.0 3.0 0.00 0.00 0.00 23 1006.8
20260505234045 62 233 3.0 5.0 0.00 0.00 0.00 24 1006.9
20260505233543 62 17 0.0 1.0 0.00 0.00 0.00 27 1006.8
20260505233040 62 218 0.0 0.0 0.00 0.00 0.00 29 1006.9
20260505232538 62 254 3.0 3.0 0.00 0.00 0.00 27 1006.7
20260505232035 62 236 1.0 2.0 0.00 0.00 0.00 27 1006.9
20260505231532 62 251 2.0 3.0 0.00 0.00 0.00 27 1006.9
20260505231031 63 259 1.0 2.0 0.00 0.00 0.00 27 1006.7
20260505230527 63 106 1.0 1.0 0.00 0.00 0.00 26 1006.8
20260505230024 64 269 2.0 3.0 0.00 0.00 0.00 25 1006.9
20260505225521 63 284 2.0 3.0 0.00 0.00 0.00 26 1006.9
20260505225017 63 228 0.0 0.0 0.00 0.00 0.00 35 1006.9
20260505224514 62 225 1.0 1.0 0.00 0.00 0.00 29 1007.1
20260505224011 62 248 1.0 1.0 0.00 0.00 0.00 28 1007.3
20260505223508 63 284 3.0 5.0 0.00 0.00 0.00 25 1007.3
20260505223004 64 94 2.0 2.0 0.00 0.00 0.00 25 1007.5
20260505222501 64 143 2.0 2.0 0.00 0.00 0.00 24 1007.3
20260505221956 65 147 0.0 1.0 0.00 0.00 0.00 25 1007.3
20260505221454 66 248 3.0 3.0 0.00 0.00 0.00 22 1007.4
20260505220951 65 308 3.0 5.0 0.00 0.00 0.00 24 1007.3
20260505220448 64 258 1.0 2.0 0.00 0.00 0.00 25 1007.6
20260505215945 64 276 3.0 5.0 0.00 0.00 0.00 28 1007.3
20260505215444 64 317 3.0 6.0 0.00 0.00 0.00 26 1007.6
20260505214941 66 254 2.0 3.0 0.00 0.00 0.00 25 1007.9
20260505214439 65 240 4.0 6.0 0.00 0.00 0.00 25 1007.6
20260505213936 68 286 2.0 2.0 0.00 0.00 0.00 23 1007.9
20260505213433 68 274 4.0 5.0 0.00 0.00 0.00 24 1008.0
20260505212929 68 296 1.0 1.0 0.00 0.00 0.00 24 1008.1
20260505212426 67 268 1.0 2.0 0.00 0.00 0.00 24 1008.1
20260505211922 68 232 3.0 5.0 0.00 0.00 0.00 24 1008.4
20260505211420 70 216 1.0 2.0 0.00 0.00 0.00 25 1008.7
20260505210916 70 88 2.0 3.0 0.00 0.00 0.00 24 1008.6
20260505210414 68 65 1.0 2.0 0.00 0.00 0.00 25 1008.2
20260505205911 67 125 3.0 5.0 0.00 0.00 0.00 24 1008.6
20260505205409 68 273 4.0 5.0 0.00 0.00 0.00 23 1008.8
20260505204905 68 287 2.0 3.0 0.00 0.00 0.00 23 1008.8
20260505204403 67 159 2.0 2.0 0.00 0.00 0.00 22 1008.8
20260505203900 66 23 1.0 1.0 0.00 0.00 0.00 25 1009.1
20260505203357 65 129 1.0 1.0 0.00 0.00 0.00 25 1009.0
20260505202853 64 173 0.0 0.0 0.00 0.00 0.00 25 1009.3
20260505202349 64 307 1.0 2.0 0.00 0.00 0.00 26 1009.2
20260505201846 64 103 1.0 1.0 0.00 0.00 0.00 29 1009.3
20260505201343 65 155 0.0 0.0 0.00 0.00 0.00 30 1009.6
20260505200842 69 291 1.0 2.0 0.00 0.00 0.00 24 1009.6
20260505200338 65 74 0.0 1.0 0.00 0.00 0.00 30 1009.3
20260505195834 65 265 2.0 3.0 0.00 0.00 0.00 25 1009.3
20260505195331 66 145 0.0 1.0 0.00 0.00 0.00 28 1009.3
20260505194828 65 201 0.0 0.0 0.00 0.00 0.00 29 1009.6
20260505194325 65 189 1.0 2.0 0.00 0.00 0.00 29 1009.3
20260505193820 66 355 1.0 1.0 0.00 0.00 0.00 26 1009.6
20260505193319 67 4 1.0 1.0 0.00 0.00 0.00 28 1009.6
20260505192816 66 226 1.0 1.0 0.00 0.00 0.00 28 1009.5
20260505192315 63 103 1.0 1.0 0.00 0.00 0.00 29 1009.8
20260505191812 61 101 0.0 1.0 0.00 0.00 0.00 35 1009.8
20260505191310 62 83 3.0 5.0 0.00 0.00 0.00 31 1009.9
20260505190806 62 191 1.0 1.0 0.00 0.00 0.00 29 1010.3
20260505190302 62 199 1.0 1.0 0.00 0.00 0.00 29 1010.2
20260505185758 62 248 2.0 2.0 0.00 0.00 0.00 29 1010.2
20260505185254 61 246 2.0 3.0 0.00 0.00 0.00 30 1010.2
20260505184750 62 215 3.0 3.0 0.00 0.00 0.00 29 1010.4
20260505184248 62 86 1.0 1.0 0.00 0.00 0.00 30 1010.1
20260505183744 62 192 2.0 2.0 0.00 0.00 0.00 29 1010.4
20260505183242 62 142 0.0 0.0 0.00 0.00 0.00 30 1010.2
20260505182738 63 167 3.0 5.0 0.00 0.00 0.00 28 1010.3
20260505182235 64 145 0.0 1.0 0.00 0.00 0.00 31 1010.4
20260505181731 64 108 1.0 1.0 0.00 0.00 0.00 30 1010.4
20260505181229 62 193 2.0 3.0 0.00 0.00 0.00 31 1010.7
20260505180726 62 236 1.0 2.0 0.00 0.00 0.00 31 1010.8
20260505180222 61 207 1.0 1.0 0.00 0.00 0.00 29 1010.6
20260505175718 61 128 1.0 2.0 0.00 0.00 0.00 29 1010.8
20260505175215 60 115 2.0 2.0 0.00 0.00 0.00 30 1010.7
20260505174712 59 173 1.0 1.0 0.00 0.00 0.00 30 1010.8
20260505174209 60 149 0.0 1.0 0.00 0.00 0.00 30 1011.0
20260505173705 60 148 0.0 0.0 0.00 0.00 0.00 30 1011.3
20260505173202 61 78 1.0 1.0 0.00 0.00 0.00 32 1011.0
20260505172659 60 78 0.0 0.0 0.00 0.00 0.00 33 1011.4
20260505172155 59 203 1.0 2.0 0.00 0.00 0.00 32 1011.2
20260505171655 59 162 1.0 2.0 0.00 0.00 0.00 31 1011.4
20260505171152 59 32 1.0 1.0 0.00 0.00 0.00 33 1011.4
20260505170650 59 247 1.0 1.0 0.00 0.00 0.00 34 1011.2
20260505170146 59 244 2.0 3.0 0.00 0.00 0.00 30 1011.2
20260505165641 59 235 0.0 1.0 0.00 0.00 0.00 31 1011.3
20260505165137 58 136 0.0 1.0 0.00 0.00 0.00 32 1011.2
20260505164632 57 30 0.0 1.0 0.00 0.00 0.00 37 1011.2
20260505164130 57 130 1.0 1.0 0.00 0.00 0.00 33 1011.3
20260505163628 57 228 0.0 1.0 0.00 0.00 0.00 33 1011.3
20260505163126 57 101 2.0 2.0 0.00 0.00 0.00 33 1011.3
20260505162623 58 187 1.0 2.0 0.00 0.00 0.00 33 1010.9
20260505162121 57 193 0.0 1.0 0.00 0.00 0.00 33 1011.0
20260505161618 56 238 0.0 1.0 0.00 0.00 0.00 36 1011.4
20260505161115 56 210 1.0 1.0 0.00 0.00 0.00 34 1011.3
20260505160613 56 151 1.0 1.0 0.00 0.00 0.00 34 1011.3
20260505160110 56 190 0.0 0.0 0.00 0.00 0.00 35 1011.0
20260505153049 57 124 0.0 0.0 0.00 0.00 0.00 39 1011.3
20260505152546 58 81 0.0 1.0 0.00 0.00 0.00 40 1011.3
20260505152042 58 136 0.0 1.0 0.00 0.00 0.00 38 1011.0
20260505151537 56 125 0.0 0.0 0.00 0.00 0.00 43 1011.4
20260505151035 54 26 1.0 2.0 0.00 0.00 0.00 42 1011.5
20260505150531 53 175 0.0 1.0 0.00 0.00 0.00 50 1011.5
20260505140456 44 184 0.0 0.0 0.00 0.00 0.00 67 1012.5
20260505124909 37 191 0.0 0.0 0.00 0.00 0.00 82 1012.9
20260505124407 37 189 0.0 0.0 0.00 0.00 0.00 82 1013.1
20260505123902 38 177 0.0 0.0 0.00 0.00 0.00 82 1012.9
20260505123359 38 153 0.0 0.0 0.00 0.00 0.00 81 1012.9
20260505122855 37 136 0.0 0.0 0.00 0.00 0.00 82 1012.8
20260505122353 38 136 0.0 0.0 0.00 0.00 0.00 82 1013.0
20260505121849 38 136 0.0 0.0 0.00 0.00 0.00 82 1012.8
20260505121346 38 128 0.0 0.0 0.00 0.00 0.00 81 1012.8
20260505120842 38 133 0.0 0.0 0.00 0.00 0.00 82 1012.8
20260505120338 38 191 0.0 0.0 0.00 0.00 0.00 80 1012.6
20260505115837 38 191 0.0 0.0 0.00 0.00 0.00 80 1012.9
20260505115334 38 191 0.0 0.0 0.00 0.00 0.00 80 1013.1
20260505114832 38 113 0.0 0.0 0.00 0.00 0.00 80 1013.1
20260505114328 38 72 0.0 0.0 0.00 0.00 0.00 82 1013.1
20260505113825 39 109 0.0 0.0 0.00 0.00 0.00 80 1012.8
20260505113321 39 219 0.0 0.0 0.00 0.00 0.00 78 1012.8
20260505112817 38 219 0.0 0.0 0.00 0.00 0.00 78 1012.8
20260505112315 38 225 0.0 0.0 0.00 0.00 0.00 80 1012.6
20260505111810 38 168 0.0 0.0 0.00 0.00 0.00 80 1012.9
20260505111306 38 172 0.0 0.0 0.00 0.00 0.00 81 1012.6
20260505110802 38 169 0.0 0.0 0.00 0.00 0.00 81 1012.8
20260505110300 39 122 0.0 0.0 0.00 0.00 0.00 81 1012.5
20260505101734 39 120 0.0 0.0 0.00 0.00 0.00 81 1012.4
20260505101230 40 127 0.0 0.0 0.00 0.00 0.00 82 1012.5
20260505100726 40 178 0.0 0.0 0.00 0.00 0.00 76 1012.5
20260505100223 39 202 0.0 0.0 0.00 0.00 0.00 77 1012.5
20260505095718 39 193 0.0 0.0 0.00 0.00 0.00 80 1012.1
20260505095217 39 118 0.0 0.0 0.00 0.00 0.00 79 1012.0
20260505094712 39 107 0.0 0.0 0.00 0.00 0.00 81 1012.3
20260505094208 40 106 0.0 0.0 0.00 0.00 0.00 83 1012.3
20260505093705 41 196 0.0 0.0 0.00 0.00 0.00 72 1012.3
20260505093202 41 223 0.0 0.0 0.00 0.00 0.00 74 1012.3
20260505092654 40 233 0.0 0.0 0.00 0.00 0.00 75 1012.4
20260505092152 40 201 0.0 0.0 0.00 0.00 0.00 76 1012.3
20260505091649 40 117 0.0 0.0 0.00 0.00 0.00 77 1012.6
20260505091147 40 75 0.0 0.0 0.00 0.00 0.00 79 1012.0
20260505090644 42 98 2.0 2.0 0.00 0.00 0.00 80 1012.3
20260505090143 41 203 0.0 0.0 0.00 0.00 0.00 70 1012.3
20260505085639 41 199 0.0 0.0 0.00 0.00 0.00 74 1012.3
20260505085138 41 134 0.0 0.0 0.00 0.00 0.00 75 1012.4
20260505084635 41 286 0.0 0.0 0.00 0.00 0.00 76 1012.4
20260505084133 41 144 0.0 0.0 0.00 0.00 0.00 73 1012.6
20260505083630 41 230 0.0 1.0 0.00 0.00 0.00 76 1012.5
20260505083127 41 129 0.0 0.0 0.00 0.00 0.00 76 1012.4
20260505082623 42 129 0.0 0.0 0.00 0.00 0.00 74 1012.8
20260505082120 42 105 0.0 1.0 0.00 0.00 0.00 73 1012.5
20260505081616 42 206 0.0 0.0 0.00 0.00 0.00 72 1012.8
20260505081114 42 207 0.0 0.0 0.00 0.00 0.00 72 1012.6
20260505080610 42 147 0.0 0.0 0.00 0.00 0.00 72 1012.8
20260505080106 42 118 0.0 0.0 0.00 0.00 0.00 72 1012.8
20260505075602 43 95 0.0 0.0 0.00 0.00 0.00 77 1012.9
20260505075059 43 123 0.0 0.0 0.00 0.00 0.00 74 1012.5
20260505074556 44 197 0.0 0.0 0.00 0.00 0.00 67 1012.6
20260505074053 44 209 0.0 0.0 0.00 0.00 0.00 67 1012.8
20260505073551 43 212 0.0 0.0 0.00 0.00 0.00 66 1012.9
20260505073049 43 149 0.0 0.0 0.00 0.00 0.00 70 1013.0
20260505072544 44 148 0.0 0.0 0.00 0.00 0.00 70 1013.1
20260505072041 44 97 0.0 0.0 0.00 0.00 0.00 74 1012.8
20260505071536 45 198 0.0 0.0 0.00 0.00 0.00 62 1012.9
20260505071035 45 215 0.0 0.0 0.00 0.00 0.00 65 1012.6
20260505070532 45 204 0.0 0.0 0.00 0.00 0.00 65 1012.8
20260505070028 44 192 0.0 0.0 0.00 0.00 0.00 68 1012.6
20260505065524 44 155 0.0 0.0 0.00 0.00 0.00 70 1012.8
20260505065020 44 165 0.0 0.0 0.00 0.00 0.00 70 1012.6
20260505064517 45 151 0.0 0.0 0.00 0.00 0.00 70 1012.6
20260505064016 45 134 0.0 1.0 0.00 0.00 0.00 65 1012.9
20260505063513 45 149 0.0 0.0 0.00 0.00 0.00 66 1012.5
20260505063008 46 118 0.0 0.0 0.00 0.00 0.00 67 1012.6
20260505062505 46 201 0.0 0.0 0.00 0.00 0.00 65 1012.8
20260505062003 46 175 0.0 1.0 0.00 0.00 0.00 63 1012.8
20260505061500 46 267 0.0 0.0 0.00 0.00 0.00 65 1012.4
20260505060957 46 145 0.0 1.0 0.00 0.00 0.00 64 1012.6
20260505060455 45 253 0.0 1.0 0.00 0.00 0.00 65 1012.8
20260505055951 46 137 0.0 0.0 0.00 0.03 0.03 67 1012.6
20260505055447 46 112 0.0 0.0 0.00 0.03 0.03 68 1012.8
20260505054944 45 157 0.0 0.0 0.00 0.03 0.03 70 1012.4
20260505054441 46 164 0.0 0.0 0.00 0.03 0.03 67 1012.4
20260505053939 46 164 0.0 0.0 0.00 0.03 0.03 65 1012.5
20260505053436 47 147 0.0 0.0 0.00 0.03 0.03 68 1012.4
20260505052932 47 152 0.0 0.0 0.00 0.03 0.03 64 1012.5
20260505052429 47 143 0.0 0.0 0.00 0.03 0.03 62 1012.5
20260505051927 47 174 0.0 0.0 0.00 0.03 0.03 62 1012.3
20260505051424 48 134 0.0 0.0 0.00 0.03 0.03 66 1012.1
20260505050922 48 118 0.0 1.0 0.00 0.03 0.03 65 1012.3
20260505050420 48 141 0.0 0.0 0.00 0.03 0.03 58 1012.6
20260505041347 50 150 0.0 0.0 0.00 0.03 0.03 51 1012.6
20260505040844 50 156 0.0 0.0 0.00 0.03 0.03 52 1012.5
20260505040342 50 225 0.0 0.0 0.00 0.03 0.03 48 1012.5
20260505035839 49 217 0.0 0.0 0.00 0.03 0.03 50 1012.6
20260505035334 49 218 0.0 0.0 0.00 0.03 0.03 52 1012.3
20260505034832 48 189 0.0 0.0 0.00 0.03 0.03 54 1012.4
20260505034328 48 189 0.0 0.0 0.00 0.03 0.03 54 1012.4
20260505033826 49 189 0.0 0.0 0.00 0.03 0.03 58 1012.4
20260505033322 49 189 0.0 0.0 0.00 0.03 0.03 60 1012.3
20260505032821 49 191 0.0 0.0 0.00 0.03 0.03 56 1012.1
20260505032316 50 135 0.0 0.0 0.00 0.03 0.03 56 1012.0
20260505031814 50 121 0.0 0.0 0.00 0.03 0.03 61 1011.9
20260505031310 50 181 0.0 0.0 0.00 0.03 0.03 56 1012.0
20260505030808 50 175 0.0 0.0 0.00 0.03 0.03 61 1011.9
20260505030304 50 106 0.0 0.0 0.00 0.03 0.03 60 1011.9
20260505025759 50 128 0.0 0.0 0.00 0.03 0.03 57 1011.9
20260505025257 51 128 0.0 0.0 0.00 0.03 0.03 56 1012.0
20260505024755 51 128 0.0 0.0 0.00 0.03 0.03 57 1011.8
20260505024252 52 127 0.0 0.0 0.00 0.03 0.03 54 1011.8
20260505023749 52 159 0.0 0.0 0.00 0.03 0.03 53 1011.7
20260505023246 53 120 0.0 0.0 0.00 0.03 0.03 55 1011.5
20260505022744 54 187 0.0 0.0 0.00 0.03 0.03 43 1011.7
20260505022241 55 188 0.0 0.0 0.00 0.03 0.03 42 1011.5
20260505021737 55 224 0.0 1.0 0.00 0.03 0.03 39 1011.3
20260505021235 56 198 0.0 0.0 0.00 0.03 0.03 38 1011.8
20260505020730 56 194 0.0 0.0 0.00 0.03 0.03 38 1011.4
20260505020225 57 194 0.0 0.0 0.00 0.03 0.03 37 1011.7
20260505015723 57 194 0.0 0.0 0.00 0.03 0.03 36 1011.0
20260505015220 57 195 0.0 0.0 0.00 0.03 0.03 35 1011.4
20260505014717 58 178 0.0 0.0 0.00 0.03 0.03 35 1011.7
20260505014214 58 162 0.0 0.0 0.00 0.03 0.03 32 1011.8